Weather in Ust-Tara

Russia / Omsk Oblast     56°40′30″N   74°39′11″E
В апреле 2022 года жителям России запретили посещать сайт meteo.paraplan.net по решению Генеральной прокуратуры. Аудитория сайта уменьшилась в 10 раз. Владельцы сайта не видят смысла в поддержке погодного сервера в таких условиях. Сайт будет закрыт в октябре.
temp.,
°C
wind,
m/s
gust,
m/s
humid.,
%
clouds,
%
prec.,
mm/h
press.,
hPa
HPBL,
m
30 september, fri
fri3000:00−4nw39846 0.0 1027213
03:00−4nw38945 0.0 1028187
06:00−5nw39955 0.0 1029206
09:00−2nnw487678 0.0 1031320
12:00+4n45475 0.0 10311076
15:00+5nnw454294 0.0 10321527
18:00+2nnw345650 0.0 103362
21:00−2n34745 0.0 103553
1 october, sat
sat100:00−3n22785 0.0 103621
03:00−4nnw22825 0.0 103716
06:00−5nnw22835 0.0 103822
09:00−1nnw23635 0.0 1039185
12:00+4nw22425 0.0 1039896
15:00+5wnw22375 0.0 10381234
18:00+3w224947 0.0 103819
21:00−1wnw116226 0.0 103910
2 october, sun
sun200:00−2w11655 0.0 103910
03:00−2s11695 0.0 103910
06:00−3s11736 0.0 103910
09:000ssw125816 0.0 1040141
12:00+5ssw234353 0.0 1039860
15:00+6ssw33399 0.0 10381191
18:00+3ssw22525 0.0 103714
21:000sse22643 0.0 103819
3 october, mon
mon300:00−1s33715 0.0 103833
03:00−2s23785 0.0 103730
06:00−2sse23815 0.0 103734
09:00+1s35655 0.0 1037177
12:00+6ssw45465 0.0 1036813
15:00+8ssw45410 0.0 10351090
18:00+5ssw22550 0.0 103424
21:00+2s346662 0.0 103551
4 october, tue
tue400:000s357365 0.0 103584
03:000ssw367917 0.0 103590
06:00−1ssw3780100 0.0 1035117
09:00+2ssw3866100 0.0 1035243
12:00+7sw574796 0.0 1035570
15:00+8sw4846100 0.0 1034601
18:00+7wsw3952100 0.0 1034371
21:00+5wsw3106091 0.0 1034266